Location: Newark
(36.0000°N, 138.0000°E)
Time: 07:04:26
(UTC+00:00)

Tiangong 2 - Pass Details

Date: 30 March 2019
Orbit: 378 x 389 km, 42.8° (Epoch: 21 April)

Event Time Altitude Azimuth Distance (km) Brightness Sun altitude
Rises 10:29:18 0° 237° (WSW) 2,231 5.5 -17.0°
Reaches altitude 10° 10:31:22 10° 234° (SW) 1,380 4.3 -17.4°
Maximum altitude 10:34:27 67° 151° (SSE) 410 0.9 -18.0°
Enters shadow 10:34:30 67° 144° (SE) 410 0.9 -18.0°
